When you browse on this site, cookies collect data to enhance your experience and personalize the content and advertising you see.
Visit our Privacy Policy to learn more. By continuing to use the site, you agree to this use of cookies and data.
  • în România
  • Lista ţărilor
  • Pe 7 zile
  • Temperatura apei
  • Hartă satelitară
  • Meteo pe hartă
  • Widget-uri
  • user-avatar
    Intrare

    Meteo pe oră la Portland

    Astăzi, 10 Decembrie, Luni

    Timp Temperatura Precipitaţii Vânt Presiune Umiditate
    00:00 +6°C° 0.1 mm 1 m/s 766 mmHg 91%
    01:00 +5°C° 0.1 mm 0 m/s 767 mmHg 93%
    02:00 +5°C° 0.1 mm 0 m/s 767 mmHg 93%
    03:00 +5°C° 0.1 mm 0 m/s 767 mmHg 94%
    04:00 +5°C° 0.1 mm 0 m/s 767 mmHg 95%
    05:00 +5°C° 0.1 mm 0 m/s 767 mmHg 96%
    06:00 +6°C° 0.1 mm 1 m/s 767 mmHg 96%
    07:00 +6°C° 0.1 mm 1 m/s 767 mmHg 96%
    08:00 +7°C° 0 mm 1 m/s 768 mmHg 95%
    09:00 +8°C° 0 mm 1 m/s 768 mmHg 94%
    10:00 +8°C° 0 mm 1 m/s 768 mmHg 93%
    11:00 +9°C° 0 mm 1 m/s 768 mmHg 91%
    12:00 +9°C° 0 mm 1 m/s 768 mmHg 89%
    13:00 +10°C° 0 mm 1 m/s 767 mmHg 87%
    14:00 +10°C° 0 mm 1 m/s 767 mmHg 88%
    15:00 +9°C° 0 mm 1 m/s 767 mmHg 90%
    16:00 +9°C° 0 mm 1 m/s 767 mmHg 91%
    17:00 +8°C° 0 mm 1 m/s 767 mmHg 92%
    18:00 +8°C° 0 mm 1 m/s 768 mmHg 92%
    19:00 +7°C° 0 mm 1 m/s 768 mmHg 93%
    20:00 +7°C° 0 mm 1 m/s 768 mmHg 92%
    21:00 +7°C° 0 mm 1 m/s 767 mmHg 92%
    22:00 +7°C° 0 mm 1 m/s 767 mmHg 91%
    23:00 +7°C° 0.1 mm 1 m/s 767 mmHg 90%

    Mâine, 11 Decembrie, Marţi

    Timp Temperatura Precipitaţii Vânt Presiune Umiditate
    00:00 +6°C° 0.1 mm 2 m/s 766 mmHg 88%
    01:00 +6°C° 0.1 mm 2 m/s 766 mmHg 87%
    02:00 +6°C° 0.6 mm 2 m/s 765 mmHg 86%
    03:00 +6°C° 0.6 mm 2 m/s 764 mmHg 86%
    04:00 +7°C° 0.6 mm 2 m/s 764 mmHg 85%
    05:00 +7°C° 1.7 mm 2 m/s 763 mmHg 86%
    06:00 +7°C° 1.7 mm 3 m/s 763 mmHg 86%
    07:00 +7°C° 1.7 mm 3 m/s 762 mmHg 87%
    08:00 +7°C° 1.6 mm 3 m/s 762 mmHg 87%
    09:00 +7°C° 1.6 mm 3 m/s 761 mmHg 87%
    10:00 +7°C° 1.6 mm 3 m/s 761 mmHg 88%
    11:00 +8°C° 1 mm 3 m/s 760 mmHg 88%
    12:00 +7°C° 1 mm 4 m/s 759 mmHg 89%
    13:00 +8°C° 1 mm 4 m/s 758 mmHg 89%
    14:00 +8°C° 2 mm 5 m/s 757 mmHg 89%
    15:00 +9°C° 2 mm 6 m/s 755 mmHg 89%
    16:00 +9°C° 2 mm 6 m/s 754 mmHg 89%
    17:00 +9°C° 4.7 mm 5 m/s 754 mmHg 90%
    18:00 +8°C° 4.7 mm 5 m/s 755 mmHg 91%
    19:00 +8°C° 4.7 mm 4 m/s 755 mmHg 92%
    20:00 +7°C° 1.2 mm 4 m/s 756 mmHg 90%
    21:00 +7°C° 1.2 mm 4 m/s 758 mmHg 88%
    22:00 +7°C° 1.2 mm 4 m/s 759 mmHg 86%
    23:00 +6°C° 0.6 mm 4 m/s 760 mmHg 86%

    Poimâine, 12 Decembrie, Miercuri

    Timp Temperatura Precipitaţii Vânt Presiune Umiditate
    00:00 +6°C° 0.6 mm 4 m/s 761 mmHg 85%
    01:00 +6°C° 0.6 mm 4 m/s 762 mmHg 85%
    02:00 +6°C° 0.4 mm 4 m/s 763 mmHg 85%
    03:00 +5°C° 0.4 mm 3 m/s 764 mmHg 85%
    04:00 +5°C° 0.4 mm 3 m/s 765 mmHg 86%
    05:00 +5°C° 0.1 mm 3 m/s 766 mmHg 87%
    06:00 +5°C° 0.1 mm 2 m/s 767 mmHg 88%
    07:00 +5°C° 0.1 mm 2 m/s 768 mmHg 90%
    08:00 +6°C° 0.1 mm 2 m/s 769 mmHg 89%
    09:00 +6°C° 0.1 mm 2 m/s 770 mmHg 88%
    10:00 +7°C° 0.1 mm 2 m/s 770 mmHg 87%
    11:00 +8°C° 0 mm 2 m/s 770 mmHg 84%
    12:00 +9°C° 0 mm 2 m/s 770 mmHg 80%
    13:00 +9°C° 0 mm 2 m/s 769 mmHg 77%
    14:00 +9°C° 0 mm 2 m/s 769 mmHg 79%
    15:00 +9°C° 0 mm 2 m/s 769 mmHg 82%
    16:00 +9°C° 0 mm 1 m/s 769 mmHg 84%
    17:00 +8°C° 0 mm 2 m/s 769 mmHg 85%
    18:00 +7°C° 0 mm 2 m/s 769 mmHg 85%
    19:00 +7°C° 0 mm 2 m/s 769 mmHg 85%
    20:00 +7°C° 0.1 mm 2 m/s 769 mmHg 83%
    21:00 +7°C° 0.1 mm 2 m/s 769 mmHg 81%
    22:00 +7°C° 0.1 mm 2 m/s 768 mmHg 80%
    23:00 +7°C° 0.3 mm 2 m/s 768 mmHg 80%

    13 Decembrie, Joi

    Timp Temperatura Precipitaţii Vânt Presiune Umiditate
    00:00 +7°C° 0.3 mm 2 m/s 767 mmHg 80%
    01:00 +7°C° 0.3 mm 2 m/s 767 mmHg 80%
    02:00 +7°C° 0.4 mm 2 m/s 766 mmHg 79%
    03:00 +7°C° 0.4 mm 2 m/s 766 mmHg 79%
    04:00 +7°C° 0.4 mm 2 m/s 766 mmHg 78%
    05:00 +7°C° 0.2 mm 2 m/s 765 mmHg 77%
    06:00 +7°C° 0.2 mm 2 m/s 765 mmHg 76%
    07:00 +7°C° 0.2 mm 2 m/s 765 mmHg 75%
    08:00 +7°C° 0.1 mm 2 m/s 765 mmHg 73%
    09:00 +8°C° 0.1 mm 2 m/s 764 mmHg 71%
    10:00 +8°C° 0.1 mm 2 m/s 764 mmHg 70%
    11:00 +9°C° 0 mm 2 m/s 763 mmHg 66%
    12:00 +10°C° 0 mm 2 m/s 763 mmHg 63%
    13:00 +11°C° 0 mm 3 m/s 762 mmHg 59%
    14:00 +10°C° 0 mm 2 m/s 761 mmHg 61%
    15:00 +10°C° 0 mm 2 m/s 761 mmHg 63%
    16:00 +9°C° 0 mm 2 m/s 760 mmHg 65%
    17:00 +9°C° 0 mm 2 m/s 760 mmHg 65%
    18:00 +9°C° 0 mm 2 m/s 759 mmHg 64%
    19:00 +8°C° 0 mm 2 m/s 759 mmHg 64%
    20:00 +8°C° 0 mm 2 m/s 758 mmHg 64%
    21:00 +7°C° 0 mm 2 m/s 757 mmHg 64%
    22:00 +7°C° 0 mm 2 m/s 756 mmHg 64%
    23:00 +7°C° 0 mm 2 m/s 755 mmHg 62%

    14 Decembrie, Vineri

    Timp Temperatura Precipitaţii Vânt Presiune Umiditate
    00:00 +8°C° 0 mm 2 m/s 754 mmHg 61%
    01:00 +8°C° 0 mm 2 m/s 753 mmHg 60%
    02:00 +8°C° 0.5 mm 2 m/s 753 mmHg 64%
    03:00 +8°C° 0.5 mm 2 m/s 752 mmHg 67%
    04:00 +8°C° 0.5 mm 2 m/s 752 mmHg 71%
    05:00 +8°C° 1.4 mm 3 m/s 751 mmHg 75%
    06:00 +7°C° 1.4 mm 4 m/s 751 mmHg 80%
    07:00 +7°C° 1.4 mm 4 m/s 751 mmHg 84%
    08:00 +7°C° 1.5 mm 5 m/s 751 mmHg 85%
    09:00 +7°C° 1.5 mm 5 m/s 751 mmHg 86%
    10:00 +8°C° 1.5 mm 5 m/s 751 mmHg 87%
    11:00 +8°C° 0.7 mm 5 m/s 752 mmHg 83%
    12:00 +8°C° 0.7 mm 5 m/s 753 mmHg 79%
    13:00 +8°C° 0.7 mm 5 m/s 754 mmHg 76%
    14:00 +7°C° 0.4 mm 5 m/s 755 mmHg 76%
    15:00 +6°C° 0.4 mm 4 m/s 756 mmHg 77%
    16:00 +6°C° 0.4 mm 4 m/s 757 mmHg 77%
    17:00 +5°C° 0.2 mm 3 m/s 758 mmHg 79%
    18:00 +5°C° 0.2 mm 2 m/s 759 mmHg 81%
    19:00 +5°C° 0.2 mm 2 m/s 760 mmHg 83%
    20:00 +4°C° 0 mm 2 m/s 761 mmHg 85%
    21:00 +4°C° 0 mm 2 m/s 761 mmHg 86%
    22:00 +4°C° 0 mm 1 m/s 762 mmHg 88%
    23:00 +4°C° 0 mm 1 m/s 762 mmHg 88%

    15 Decembrie, Sâmbătă

    Timp Temperatura Precipitaţii Vânt Presiune Umiditate
    00:00 +4°C° 0 mm 1 m/s 762 mmHg 88%
    01:00 +3°C° 0 mm 1 m/s 762 mmHg 88%
    02:00 +3°C° 0 mm 1 m/s 763 mmHg 88%
    03:00 +3°C° 0 mm 1 m/s 763 mmHg 87%
    04:00 +3°C° 0 mm 1 m/s 763 mmHg 87%
    05:00 +3°C° 0 mm 1 m/s 762 mmHg 86%
    06:00 +3°C° 0 mm 1 m/s 762 mmHg 86%
    07:00 +3°C° 0 mm 1 m/s 762 mmHg 85%
    08:00 +3°C° 0 mm 1 m/s 761 mmHg 81%
    09:00 +4°C° 0 mm 1 m/s 761 mmHg 78%
    10:00 +5°C° 0 mm 1 m/s 760 mmHg 74%
    11:00 +6°C° 0 mm 1 m/s 759 mmHg 70%
    12:00 +6°C° 0 mm 2 m/s 758 mmHg 66%
    13:00 +8°C° 0 mm 2 m/s 758 mmHg 63%
    14:00 +7°C° 0 mm 2 m/s 758 mmHg 65%
    15:00 +7°C° 0 mm 2 m/s 758 mmHg 68%
    16:00 +6°C° 0 mm 2 m/s 758 mmHg 71%
    17:00 +6°C° 0 mm 2 m/s 757 mmHg 70%
    18:00 +6°C° 0 mm 2 m/s 757 mmHg 70%
    19:00 +5°C° 0 mm 3 m/s 756 mmHg 69%
    20:00 +5°C° 0 mm 3 m/s 756 mmHg 69%
    21:00 +5°C° 0 mm 3 m/s 756 mmHg 69%
    22:00 +5°C° 0 mm 3 m/s 755 mmHg 69%
    23:00 +5°C° 0.2 mm 3 m/s 755 mmHg 72%
    Arată mai mult